Minchumina, AK

12:55 PM AKDT on March 25, 2017 (GMT -0800)
Minchumina

Weather History for PAMH - December, 2012

Change the Weather History Date:

Wednesday, December 5, 2012

  Actual Average Record
Temperature  
Mean Temperature -11 °F -  
Max Temperature -2 °F 2 °F 24 °F (2002)
Min Temperature -20 °F -5 °F -32 °F (2001)
Degree Days  
Heating Degree Days 76    
Moisture  
Dew Point -13 °F    
Average Humidity 72    
Maximum Humidity 84    
Minimum Humidity 58    
Precipitation  
Precipitation 0.00 in - - ()
Sea Level Pressure  
Sea Level Pressure 29.76 in    
Wind  
Wind Speed 7 mph (NNE)    
Max Wind Speed 40 mph    
Max Gust Speed 129 mph    
Visibility 10 miles    
Events      
Averages and records for this station are not official NWS values.
T = Trace of Precipitation, MM = Missing Value Source: NWS Daily Summary

Daily Weather History Graph

Daily Weather History Graph

Search for Another Location

Airport or City:

Trip Planner

Search our weather history database for the weather conditions in past years. The results will help you decide how hot, cold, wet, or windy it might be!

Date:

Astronomy

Dec. 05, 2012 Rise Set
Actual Time 10:35 AM AKST 3:24 PM AKST
Civil Twilight 9:23 AM AKST 4:36 PM AKST
Nautical Twilight 8:17 AM AKST 5:42 PM AKST
Astronomical Twilight 7:19 AM AKST 6:40 PM AKST
Moon No Moon Rise 1:07 PM AKST (12/5)
Length of Visible Light 7h 12m
Length of Day
4h 48m
Waning Gibbous, 58% of the Moon is Illuminated
Dec 5
Waning Gibbous
Dec 6
Last Quarter
Dec 12
New
Dec 19
First Quarter
Dec 28
Full

Hourly Weather History & Observations

Time (AKST) Temp. Windchill Dew Point Humidity Pressure Visibility Wind Dir Wind Speed Gust Speed Precip Events Conditions
12:16 AM -20.2 °F - -23.8 °F 83% 29.75 in 10.0 mi Calm Calm - N/A   Clear
12:36 AM -16.6 °F - -27.4 °F 58% 29.76 in 10.0 mi Calm Calm - N/A   Mostly Cloudy
12:56 AM -18.4 °F - -25.6 °F 70% 29.76 in 10.0 mi Calm Calm - N/A   Overcast
1:16 AM -18.4 °F - - N/A% 29.76 in 10.0 mi Calm Calm - N/A   Overcast
1:36 AM -18.4 °F - -29.2 °F 58% 29.77 in 10.0 mi Calm Calm - N/A   Scattered Clouds
1:56 AM -18.4 °F - -22.0 °F 84% 29.76 in 10.0 mi Calm Calm - N/A   Scattered Clouds
2:16 AM -14.8 °F - -20.2 °F 77% 29.76 in 10.0 mi Calm Calm - N/A   Overcast
2:36 AM -16.6 °F - -25.6 °F 64% 29.76 in 10.0 mi Calm Calm - N/A   Mostly Cloudy
2:56 AM -16.6 °F - -25.6 °F 64% 29.76 in 10.0 mi Calm Calm - N/A   Clear
3:16 AM -14.8 °F - -18.4 °F 84% 29.76 in 10.0 mi Calm Calm - N/A   Clear
3:36 AM -13.0 °F - -23.8 °F 59% 29.75 in 10.0 mi Calm Calm - N/A   Scattered Clouds
3:56 AM -11.2 °F - -18.4 °F 70% 29.75 in 10.0 mi Calm Calm - N/A   Mostly Cloudy
5:56 AM -4.0 °F -12.4 °F -11.2 °F 71% 29.74 in 10.0 mi NE 3.5 mph - N/A   Overcast
6:16 AM -2.2 °F -15.6 °F -9.4 °F 71% 29.74 in 10.0 mi NNE 6.9 mph 48.3 mph N/A   Overcast
6:36 AM -2.2 °F -23.5 °F -9.4 °F 71% 29.74 in 10.0 mi NNE 17.3 mph 64.4 mph N/A   Overcast
6:56 AM -2.2 °F -16.8 °F -9.4 °F 71% 29.74 in 10.0 mi NNE 8.1 mph 78.3 mph N/A   Overcast
7:16 AM -2.2 °F -28.8 °F -9.4 °F 71% 29.74 in 10.0 mi NNE 29.9 mph 72.5 mph N/A   Overcast
7:36 AM -2.2 °F -27.6 °F -9.4 °F 71% 29.73 in 10.0 mi NNE 26.5 mph 111.6 mph N/A   Overcast
7:56 AM -2.2 °F -27.1 °F -9.4 °F 71% 29.74 in 10.0 mi NE 25.3 mph 128.9 mph N/A   Overcast
8:16 AM -2.2 °F -28.0 °F -9.4 °F 71% 29.74 in 10.0 mi NNE 27.6 mph 90.9 mph N/A   Overcast
8:36 AM -2.2 °F -27.6 °F -9.4 °F 71% 29.74 in 10.0 mi NNE 26.5 mph 82.9 mph N/A   Overcast
8:56 AM -2.2 °F -27.6 °F -9.4 °F 71% 29.75 in 10.0 mi NE 26.5 mph 74.8 mph N/A   Overcast
9:16 AM -2.2 °F -31.3 °F -9.4 °F 71% 29.75 in 10.0 mi NE 38.0 mph 101.3 mph N/A   Overcast
9:36 AM -2.2 °F -31.9 °F -9.4 °F 71% 29.75 in 10.0 mi NE 40.3 mph 99.0 mph N/A   Overcast
9:56 AM -2.2 °F -29.9 °F -9.4 °F 71% 29.75 in 10.0 mi NNE 33.4 mph 102.4 mph N/A   Overcast
10:16 AM -2.2 °F -15.6 °F -9.4 °F 71% 29.75 in 10.0 mi NNE 6.9 mph 40.3 mph N/A   Overcast
10:36 AM -2.2 °F -18.0 °F -9.4 °F 71% 29.75 in 10.0 mi NNE 9.2 mph 86.3 mph N/A   Overcast
10:56 AM -2.2 °F -19.9 °F -9.4 °F 71% 29.75 in 10.0 mi NNE 11.5 mph 57.5 mph N/A   Overcast
11:16 AM -2.2 °F -20.7 °F -9.4 °F 71% 29.76 in 10.0 mi NNE 12.7 mph 93.2 mph N/A   Overcast
11:36 AM -2.2 °F -24.1 °F -9.4 °F 71% 29.76 in 10.0 mi NNE 18.4 mph 59.8 mph N/A   Overcast
11:56 AM -2.2 °F -19.9 °F -9.4 °F 71% 29.76 in 10.0 mi NE 11.5 mph 80.6 mph N/A   Overcast
12:16 PM -2.2 °F -27.1 °F -9.4 °F 71% 29.76 in 10.0 mi NE 25.3 mph 79.4 mph N/A   Overcast
12:36 PM -2.2 °F -26.7 °F -9.4 °F 71% 29.76 in 10.0 mi NNE 24.2 mph 81.7 mph N/A   Overcast
12:56 PM -2.2 °F -14.2 °F -9.4 °F 71% 29.76 in 10.0 mi NE 5.8 mph 67.9 mph N/A   Overcast
1:16 PM -2.2 °F -14.2 °F -9.4 °F 71% 29.77 in 10.0 mi NE 5.8 mph - N/A   Mostly Cloudy
1:36 PM -2.2 °F -12.5 °F -9.4 °F 71% 29.77 in 10.0 mi NNE 4.6 mph - N/A   Mostly Cloudy
1:56 PM -2.2 °F -12.5 °F -11.2 °F 66% 29.77 in 10.0 mi NNE 4.6 mph - N/A   Mostly Cloudy
2:16 PM -2.2 °F -10.4 °F -11.2 °F 66% 29.78 in 10.0 mi NE 3.5 mph - N/A   Mostly Cloudy
2:36 PM -2.2 °F -12.5 °F -11.2 °F 66% 29.77 in 10.0 mi NNE 4.6 mph - N/A   Mostly Cloudy
2:56 PM -2.2 °F -10.4 °F -9.4 °F 71% 29.77 in 10.0 mi NNE 3.5 mph - N/A   Overcast
3:16 PM -2.2 °F -12.5 °F -11.2 °F 66% 29.78 in 10.0 mi NNE 4.6 mph - N/A   Overcast
3:36 PM -4.0 °F - -11.2 °F 71% 29.77 in 10.0 mi Calm Calm - N/A   Mostly Cloudy
3:56 PM -4.0 °F - -11.2 °F 71% 29.77 in 10.0 mi Calm Calm - N/A   Scattered Clouds
4:16 PM -4.0 °F -14.6 °F -11.2 °F 71% 29.77 in 10.0 mi NNE 4.6 mph - N/A   Mostly Cloudy
4:36 PM -4.0 °F -12.4 °F -11.2 °F 71% 29.76 in 10.0 mi NNE 3.5 mph - N/A   Mostly Cloudy
4:56 PM -4.0 °F -16.3 °F -11.2 °F 71% 29.76 in 10.0 mi NE 5.8 mph - N/A   Mostly Cloudy
5:16 PM -4.0 °F -12.4 °F -11.2 °F 71% 29.76 in 10.0 mi NNE 3.5 mph - N/A   Mostly Cloudy
5:36 PM -5.8 °F -18.4 °F -11.2 °F 77% 29.76 in 10.0 mi NNE 5.8 mph - N/A   Partly Cloudy
5:56 PM -5.8 °F -14.5 °F -11.2 °F 77% 29.77 in 10.0 mi NNE 3.5 mph - N/A   Clear
6:16 PM -5.8 °F - - N/A% 29.77 in 10.0 mi Calm Calm - N/A   Scattered Clouds
6:36 PM -5.8 °F - - N/A% 29.77 in 10.0 mi Calm Calm - N/A   Partly Cloudy
6:56 PM -5.8 °F -16.7 °F -11.2 °F 77% 29.77 in 10.0 mi NNE 4.6 mph - N/A   Clear
7:16 PM -5.8 °F -14.5 °F -11.2 °F 77% 29.77 in 10.0 mi NNE 3.5 mph - N/A   Clear
7:36 PM -5.8 °F -18.4 °F -11.2 °F 77% 29.77 in 10.0 mi NNE 5.8 mph - N/A   Clear
7:56 PM -5.8 °F -16.7 °F -11.2 °F 77% 29.77 in 10.0 mi NNE 4.6 mph - N/A   Clear
8:16 PM -4.0 °F -16.3 °F -11.2 °F 71% 29.78 in 10.0 mi NNE 5.8 mph - N/A   Clear
8:36 PM -4.0 °F -12.4 °F -11.2 °F 71% 29.77 in 10.0 mi NNE 3.5 mph - N/A   Clear
8:56 PM -4.0 °F -12.4 °F -11.2 °F 71% 29.78 in 10.0 mi NNE 3.5 mph - N/A   Clear
9:16 PM -4.0 °F -14.6 °F -11.2 °F 71% 29.78 in 10.0 mi NNE 4.6 mph - N/A   Clear
9:36 PM -4.0 °F -14.6 °F -11.2 °F 71% 29.78 in 10.0 mi NNE 4.6 mph - N/A   Clear
9:56 PM -5.8 °F -14.5 °F -11.2 °F 77% 29.79 in 10.0 mi NNE 3.5 mph - N/A   Clear
10:16 PM -5.8 °F -16.7 °F -11.2 °F 77% 29.80 in 10.0 mi NNE 4.6 mph - N/A   Clear
10:36 PM -5.8 °F - -11.2 °F 77% 29.80 in 10.0 mi Calm Calm - N/A   Partly Cloudy
10:56 PM -5.8 °F -16.7 °F -11.2 °F 77% 29.81 in 10.0 mi NE 4.6 mph - N/A   Partly Cloudy
11:16 PM -5.8 °F -16.7 °F -11.2 °F 77% 29.80 in 10.0 mi NE 4.6 mph - N/A   Clear
11:36 PM -5.8 °F -14.5 °F -11.2 °F 77% 29.81 in 10.0 mi NNE 3.5 mph - N/A   Clear
11:56 PM -5.8 °F -14.5 °F -11.2 °F 77% 29.81 in 10.0 mi NE 3.5 mph - N/A   Clear